Torpoint, United Kingdom
Current Conditions -  °F | °C
As of 8:50 PM on Sunday 23 Nov 2014 (Local Time) from EGHQ Reporting Station
Few Clouds Few Clouds  
Wind Chill: 43°   Ceiling: Unl
Heat Index: 43°   Visibility: 6mi
Dew Point: 36°   Wind: 3mph
Humidity: 76%   Direction: NA
Pressure: 30.18"   Gusts: NA
Location:  50.38°N, 4.2°W
Report Text: EGHQ 232050Z VRB03KT 9999 FEW020 06/02 Q1022
Loading
Personal Weather Stations






























Interactive Weather Map New forecast layout! Learn more

10-Day Weather Forecast

Advertisements
Track Severe Weather on mobile